sat.trackr.live / text

‹ back to catalog

STARLINK-3883

NORAD 52493 · 2022-049AU

PAYLOAD ACTIVE UNKNOWN

§ Identity

Operator
Country
US
Launch date
2022-05-06
Launch site
AFETR
Launch vehicle
Mass (kg)
RCS (m²)

Purposes: comms

External: N2YO · Heavens-Above · Gunter

§ Orbital elements

Epoch: 2026-09-19T23:29:46.767264Z

Period
93.79 min
Inclination
53.1607°
Eccentricity
0.0001421
Mean motion
15.35398591 rev/d
Perigee alt
458.8 km
Apogee alt
460.7 km
Semi-major
6,837.9 km
B*
2.5624e-5
RAAN
246.4251°
Arg perigee
87.1007°
Mean anomaly
273.0158°
Rev number
24,186

§ Raw data

STARLINK-38831 52493U 22049AU  26262.97901351  .00000513  00000+0  25624-4 0  99942 52493  53.1607 246.4251 0001421  87.1007 273.0158 15.35398591241868

JSON: /api/v1/satellites/52493 · /tle

For live sub-satellite position, see the globe view (requires WebGL).

§ Visibility from observer

Set your observer location to see the next 7 days of passes ≥ 10°. The values pass through the URL so the page stays shareable.

No JS? Fill the form by hand. The geolocation button needs JavaScript.